Wind_Speed
32 33 34 33 31 30 33 41 43 30 21 27 31 33 37 41 43 43 41 42 45 42 38 35 32 29 27 28 27 25 26 28 29 27 24 23 24 26 26 27 28 28 28 28 27 27 27 25 23 21 18 15 14 15 15 14 15 20 23 25 25 25 25 25 24 25 28 29 28 26 24 23 25 25 24 23 22 22 23 22 20 18 18 18 17 17 18
32 31 31 31 32 31 31 37 43 34 24 30 36 36 36 40 43 45 44 43 45 43 37 36 38 37 35 32 27 25 26 27 28 28 27 25 24 26 28 29 29 29 29 29 29 29 29 28 26 25 22 19 15 13 14 15 15 17 18 20 21 23 25 26 26 27 28 29 29 26 23 22 22 24 25 24 23 23 24 23 21 19 18 17 17 17 18
32 28 27 28 29 30 31 39 44 39 30 30 35 37 39 41 43 45 45 46 47 45 38 34 36 39 38 34 30 27 25 25 25 27 28 28 27 27 29 31 31 30 30 30 30 31 31 30 29 27 26 24 21 17 14 14 16 17 17 16 16 18 20 23 25 27 27 27 26 24 22 22 22 23 25 26 26 26 25 24 23 21 20 18 17 17 17
35 32 29 27 27 27 32 41 45 41 35 32 33 35 39 44 47 48 48 49 50 49 45 39 37 38 39 35 31 27 24 21 21 24 26 28 29 29 29 31 33 33 32 31 31 32 33 33 31 29 28 27 27 25 21 17 16 16 17 16 14 13 14 17 20 24 25 25 24 23 23 24 24 24 27 28 29 29 28 27 26 24 22 20 19 17 17
37 36 35 30 28 28 31 38 41 38 34 33 35 37 40 45 49 48 49 52 51 50 50 46 40 38 39 37 33 29 26 22 21 22 24 25 28 30 31 32 33 34 35 34 33 33 34 35 33 31 30 30 30 29 26 23 20 18 18 17 15 13 13 14 16 19 22 23 24 24 24 25 26 27 29 31 31 31 31 30 28 26 24 23 22 20 19
35 34 33 28 27 31 34 36 39 40 38 35 36 38 39 44 49 48 49 52 52 50 51 50 45 41 38 36 33 31 29 27 24 24 24 24 26 28 30 32 33 35 35 35 35 35 35 35 35 34 33 32 31 30 28 26 25 24 22 20 17 15 15 15 16 17 19 22 24 25 25 25 26 27 30 32 32 32 32 31 29 27 26 25 24 23 22
31 30 32 28 27 34 36 34 36 42 41 38 39 41 41 44 50 51 51 51 51 51 51 50 48 44 41 39 37 33 30 28 28 29 28 27 26 27 29 31 33 35 36 36 36 36 36 37 37 36 35 34 33 33 31 30 29 28 27 25 23 20 19 18 17 16 17 19 22 23 24 24 24 25 27 30 32 33 33 31 29 28 27 26 26 26 26
29 29 32 31 31 34 36 35 36 40 40 38 37 39 42 46 49 51 53 53 50 48 48 50 50 46 43 44 44 41 36 33 32 33 33 33 32 31 31 31 32 34 35 36 36 36 37 38 39 38 38 37 36 35 34 33 32 31 30 29 27 26 24 23 20 18 18 18 19 20 21 22 22 23 24 26 29 32 33 32 30 29 29 28 27 27 28
29 28 30 32 33 33 33 35 39 41 41 39 36 33 35 39 42 46 50 53 52 49 47 49 51 49 45 45 45 44 43 40 38 37 36 36 35 35 35 34 34 35 35 35 36 36 36 38 39 39 40 39 39 38 38 37 35 35 34 33 31 30 28 27 26 23 21 21 20 20 21 21 21 21 21 22 24 27 31 31 30 29 29 29 28 28 27
28 30 31 33 33 32 32 35 39 42 42 41 37 32 30 33 36 39 42 45 49 50 48 48 49 49 48 47 46 45 44 42 41 39 39 38 37 36 36 37 38 38 37 36 36 36 36 37 38 39 40 40 41 41 40 40 39 38 37 36 35 34 32 31 30 29 27 26 24 23 23 23 22 22 21 21 21 23 25 27 28 29 30 30 30 30 29
25 31 35 36 34 32 33 34 35 38 40 40 37 33 32 34 35 36 37 39 42 45 49 51 49 46 46 48 49 48 45 42 42 41 39 39 38 38 38 39 39 40 40 39 38 38 38 37 38 39 39 40 41 41 42 42 41 40 40 39 38 37 36 35 34 34 33 31 29 28 27 26 25 25 25 24 24 23 22 23 26 28 29 29 30 31 31
21 26 32 36 36 35 35 35 32 32 34 35 34 33 35 37 37 36 36 38 40 42 46 50 49 46 44 45 47 48 45 42 41 41 40 39 39 39 40 40 40 40 41 42 41 40 40 39 39 40 41 41 41 41 42 43 43 43 42 41 41 40 40 39 38 38 37 35 34 33 31 30 29 29 29 28 28 27 26 25 25 26 26 28 30 32 33
23 24 26 30 34 34 32 33 34 33 32 32 32 33 35 37 38 37 36 36 38 40 42 44 46 48 49 47 46 45 44 42 42 41 41 40 39 40 41 41 41 41 42 42 42 42 42 42 41 42 43 43 43 42 43 44 44 44 44 44 43 43 43 42 42 42 41 39 38 36 35 34 32 31 31 31 30 30 30 29 28 27 26 26 27 29 32
26 26 27 28 30 30 27 28 30 31 31 33 32 31 32 34 37 38 36 35 36 38 41 42 43 46 49 50 48 45 43 43 42 41 40 39 39 41 43 43 42 42 42 44 44 44 44 43 43 44 44 44 44 44 44 45 45 46 46 46 46 45 45 45 45 45 45 43 42 40 38 37 36 34 34 33 32 33 33 32 32 31 30 29 27 26 28
28 29 30 31 31 30 29 29 29 28 29 31 31 30 29 30 33 34 35 35 36 37 39 40 41 42 44 46 47 46 44 44 44 43 43 42 42 43 44 45 45 44 44 45 45 45 44 44 44 45 45 45 46 46 46 46 47 47 46 47 47 47 47 47 47 47 47 47 45 44 42 41 40 39 37 36 36 35 34 34 33 33 33 33 31 30 29
25 29 32 34 35 34 32 31 30 30 30 30 30 30 29 29 30 31 32 33 34 35 37 38 39 41 43 43 44 45 45 45 45 46 46 45 44 45 46 46 46 46 47 47 47 46 45 45 45 45 46 46 46 46 47 47 47 47 47 47 47 47 47 47 47 48 48 48 48 47 46 45 44 43 41 40 39 38 36 35 35 35 35 35 35 34 33
21 25 28 31 34 35 35 34 33 32 31 31 31 31 32 32 32 33 34 34 34 34 36 37 38 40 42 42 41 41 43 44 45 47 49 48 47 47 48 48 47 47 48 49 49 49 48 47 47 47 47 48 48 47 47 48 48 48 47 47 48 48 48 48 48 48 48 48 48 48 48 47 46 45 44 43 42 40 38 37 36 36 36 36 37 37 35
21 22 24 26 30 33 34 34 34 33 33 33 33 33 34 35 35 35 36 35 34 34 36 38 38 39 40 41 40 40 42 44 44 45 48 49 48 47 48 48 47 47 48 50 50 50 50 49 48 48 48 49 49 49 49 49 49 49 48 48 48 48 48 48 48 48 49 49 49 49 49 48 47 46 45 44 43 41 40 39 38 37 36 36 38 39 38
22 23 24 25 28 31 32 32 33 33 33 34 34 34 35 35 35 36 36 36 36 36 37 38 38 39 40 40 41 41 42 43 44 43 44 45 46 46 46 47 47 47 48 49 50 50 50 50 50 49 49 49 49 49 49 49 49 49 49 49 49 48 49 49 49 49 49 49 49 49 48 48 47 46 45 44 43 42 41 40 39 39 38 37 37 38 38
24 26 27 28 28 30 32 32 32 33 33 33 33 34 34 35 35 36 36 37 37 38 38 38 38 39 40 40 41 42 42 43 44 44 43 44 45 46 46 47 47 47 47 48 49 50 51 51 51 51 50 50 50 49 49 50 50 49 49 49 49 49 49 49 49 49 50 50 50 49 48 47 47 46 46 45 44 43 42 41 41 40 40 39 38 37 36
25 27 29 30 30 31 33 33 33 34 34 34 34 34 34 34 34 35 36 37 38 38 39 39 39 39 40 40 41 42 42 43 44 44 44 44 45 46 46 46 46 47 47 48 49 49 50 50 51 50 50 50 50 51 51 51 50 50 50 49 49 49 49 49 49 49 50 50 50 50 49 48 48 47 46 45 45 44 43 42 42 42 41 41 41 41 40
29 29 29 30 31 33 34 35 35 35 34 34 34 35 36 35 35 35 36 37 37 38 39 39 40 40 40 40 40 41 42 42 43 44 44 44 45 45 46 46 47 48 48 48 48 48 49 49 50 50 50 50 50 51 51 51 51 51 51 50 50 50 50 49 49 49 49 49 50 50 50 49 48 48 47 46 46 46 45 44 44 44 43 43 43 43 43
33 32 32 32 32 34 34 35 35 35 35 35 36 36 37 37 37 37 37 37 37 37 38 39 40 40 40 39 40 40 41 42 43 44 45 45 45 46 46 47 47 48 48 48 48 48 48 49 50 50 51 51 51 51 51 51 52 52 52 52 51 51 51 51 51 50 50 50 50 50 50 49 48 48 48 48 48 48 48 47 46 46 46 45 45 45 43
35 35 34 34 34 34 35 36 36 36 35 35 36 38 38 38 38 38 38 38 38 38 39 40 40 39 39 39 39 39 40 42 43 44 45 46 46 47 47 47 47 47 48 49 49 49 49 50 50 51 52 52 53 52 52 52 52 53 53 53 53 53 53 53 53 53 52 52 51 51 51 50 49 49 49 49 49 50 50 49 49 48 48 48 48 48 47
36 37 37 36 36 36 37 38 39 38 38 38 37 37 37 38 38 38 38 38 38 39 40 41 41 40 40 40 40 39 40 40 41 43 44 45 46 47 48 48 47 47 47 49 50 50 50 50 51 52 53 53 54 54 54 54 53 53 54 54 54 55 55 55 55 55 54 54 54 54 53 53 52 51 50 49 50 50 51 51 51 50 51 51 51 51 51
37 37 38 39 39 39 39 39 40 41 42 42 41 40 40 40 41 41 40 39 39 40 40 41 42 42 41 41 40 39 39 40 40 41 42 43 44 45 46 47 47 46 46 47 48 49 50 50 51 51 52 53 54 55 55 55 55 55 55 55 56 56 56 57 57 57 57 57 57 57 57 56 55 54 53 52 51 51 52 52 52 52 52 52 53 53 54
37 38 38 39 40 40 39 39 40 42 43 43 42 41 41 42 42 42 42 42 41 40 40 40 41 41 41 41 40 39 38 38 39 39 40 41 42 43 43 44 45 45 45 45 46 46 47 48 49 49 50 51 52 53 54 55 55 56 57 57 57 57 58 58 59 59 59 59 59 59 59 59 58 58 57 56 55 54 53 53 53 53 53 54 55 55 55
36 36 36 37 39 39 39 39 41 42 43 44 42 41 41 41 42 42 43 42 40 39 39 40 41 42 42 41 41 40 39 39 39 39 39 39 40 41 41 42 43 43 43 44 44 44 44 45 46 46 47 48 49 50 51 52 53 54 55 56 57 58 59 59 60 60 60 61 61 61 60 60 60 60 60 60 59 58 57 57 56 55 55 55 56 57 57
33 34 35 36 37 37 38 39 40 41 43 44 44 43 43 42 42 42 42 41 40 39 38 38 40 42 44 43 42 41 42 42 42 41 40 40 39 39 40 41 41 42 42 43 43 43 43 43 43 44 44 45 45 47 47 48 49 50 51 53 54 55 57 58 59 60 60 61 62 62 62 61 61 61 61 61 62 61 61 61 61 60 59 58 58 58 59
31 32 34 35 35 35 36 36 38 39 41 42 43 44 44 44 44 43 42 41 41 42 40 39 39 41 42 43 44 44 45 46 46 45 43 42 41 40 40 40 40 41 41 42 42 43 43 43 42 42 42 42 43 43 44 45 45 46 47 48 50 51 53 54 56 57 58 59 60 61 62 62 62 63 62 62 63 63 63 64 64 64 63 62 62 61 61
31 32 32 33 33 33 33 34 34 36 37 38 39 41 41 42 43 44 43 42 42 42 42 41 41 41 41 41 42 43 46 47 48 47 46 45 44 43 42 41 41 41 42 42 42 43 43 42 42 42 42 42 42 42 42 42 43 44 44 45 46 47 48 50 51 53 55 56 57 59 60 61 62 63 63 63 63 63 64 64 65 65 66 66 66 66 66
31 31 32 33 33 32 32 33 34 34 34 35 36 37 37 37 38 40 42 41 40 39 39 41 41 41 40 39 39 41 44 47 48 48 48 47 46 45 44 44 43 43 43 43 43 43 43 43 43 43 43 43 43 42 42 42 42 43 43 43 44 45 45 46 47 49 51 52 54 56 57 58 60 61 62 62 63 64 64 63 64 65 67 68 69 70 70
30 30 31 32 33 33 33 33 33 34 34 34 35 35 36 36 36 36 38 40 40 38 37 39 40 39 38 37 36 37 40 44 46 47 47 47 46 46 46 45 45 45 44 44 44 44 44 44 45 45 45 45 44 43 43 43 43 44 44 44 44 44 45 45 46 46 47 49 51 52 54 56 57 59 60 61 62 63 64 64 64 65 66 68 70 71 73
32 32 32 32 33 33 33 33 33 33 33 34 35 35 35 35 36 36 36 38 39 38 36 37 39 39 39 40 39 38 38 39 41 43 44 45 46 46 46 46 46 46 46 45 45 45 46 47 48 48 47 46 46 45 44 44 45 46 46 46 46 46 47 47 47 47 48 48 49 51 52 54 55 56 58 59 61 62 63 64 64 64 65 66 68 71 73
34 35 35 35 35 35 35 34 34 34 33 32 32 33 32 32 34 34 35 36 37 36 36 37 38 39 39 40 41 40 40 40 40 41 41 42 43 45 46 47 46 46 46 46 46 46 48 49 50 49 49 48 48 46 46 46 47 48 49 49 50 50 51 51 51 51 51 51 51 52 53 54 54 55 56 57 59 60 62 63 63 64 65 66 67 70 73
34 35 35 36 36 37 37 36 36 36 35 33 32 31 31 32 32 32 33 34 34 34 35 36 38 38 39 39 39 39 40 41 42 42 43 42 42 43 45 47 47 47 47 47 47 48 50 51 51 51 51 51 50 50 50 51 52 52 52 52 52 53 53 54 55 55 55 55 55 55 55 56 56 56 57 57 58 59 60 61 62 63 64 65 67 69 71
36 36 36 36 37 37 38 39 38 37 37 36 34 31 30 31 32 33 33 33 34 34 35 35 37 37 38 38 38 38 38 40 41 42 43 43 43 43 44 45 46 47 47 47 48 49 51 52 53 54 54 54 54 54 55 56 57 56 55 54 54 55 56 57 58 58 59 59 59 58 58 58 58 59 59 60 60 60 61 62 63 64 64 65 66 67 69
36 36 36 36 36 37 37 39 39 38 38 37 36 32 29 28 29 31 32 33 33 34 35 35 36 36 36 37 37 37 37 38 39 40 41 42 42 43 43 44 45 46 47 47 48 49 50 51 53 54 55 55 56 56 57 58 58 58 57 57 58 59 59 60 60 60 60 60 61 61 61 60 60 60 61 62 63 63 64 64 65 65 66 66 66 67 68
33 33 33 34 35 35 36 36 37 37 36 36 36 34 31 28 26 27 29 31 32 33 33 34 34 34 34 35 35 36 36 37 37 38 39 39 40 41 42 43 44 46 47 47 47 48 48 49 51 52 53 54 54 55 56 56 57 58 59 60 61 62 63 63 62 62 61 61 62 62 62 63 63 64 64 65 65 65 65 66 67 68 68 69 68 67 66
33 33 32 32 33 34 34 34 34 34 34 35 35 34 33 31 29 27 28 29 30 30 31 31 31 31 31 32 32 33 34 35 36 36 37 37 38 38 39 40 41 43 44 45 46 46 47 47 47 48 49 49 50 51 52 54 55 57 58 59 61 61 62 61 61 61 61 62 62 62 63 64 65 65 66 66 67 68 68 69 70 71 72 72 70 68 66
33 32 32 31 32 32 33 33 33 32 32 32 33 33 33 32 31 29 29 29 29 28 28 28 28 28 28 29 29 30 31 32 33 34 34 35 35 36 37 37 37 38 39 40 41 41 41 42 42 43 43 44 45 46 48 50 52 54 55 57 58 58 58 59 59 60 60 61 61 61 62 63 65 67 68 69 71 71 72 72 72 72 72 72 71 69 66
32 32 31 30 30 31 32 32 31 31 30 29 30 31 31 30 29 28 28 28 28 28 28 27 26 26 26 27 27 27 28 28 29 30 31 31 32 32 32 32 32 32 33 33 34 34 35 35 36 37 37 38 40 42 45 47 50 52 54 55 56 57 57 58 58 59 59 60 61 62 64 65 67 68 68 69 69 69 68 68 68 69 69 69 69 68 66
34 33 33 31 29 30 31 31 30 30 29 27 27 30 31 31 30 29 28 27 28 28 28 28 27 26 26 25 25 25 26 26 26 26 25 25 25 25 25 26 27 28 29 30 30 31 31 32 33 34 36 37 40 42 45 48 50 52 53 54 56 57 57 57 58 58 59 60 61 62 62 62 61 61 60 60 60 60 61 61 62 63 64 64 65 66 66
26 27 29 31 31 31 30 30 29 28 26 24 24 27 29 29 29 28 27 26 26 27 28 28 28 28 27 26 25 24 24 25 25 24 23 22 22 23 24 25 27 27 28 28 29 29 30 32 33 35 37 40 42 44 47 49 50 51 52 52 53 54 53 52 52 52 52 52 53 53 52 52 51 51 51 52 53 54 55 55 56 57 58 59 59 60 61
21 22 23 27 30 31 30 29 29 27 24 22 23 25 26 25 25 25 25 25 25 25 26 26 27 28 28 27 26 25 25 24 24 24 23 23 23 24 25 25 26 26 26 27 28 29 31 33 35 37 40 42 43 45 47 49 49 48 47 46 46 46 44 44 43 43 44 44 44 44 44 45 46 47 48 49 50 51 51 51 51 51 52 53 53 54 55
19 20 18 18 22 25 28 29 28 26 24 23 23 23 24 24 24 24 24 23 23 23 23 24 24 25 26 26 26 26 25 25 24 24 24 24 24 24 24 24 24 24 25 27 28 30 32 35 37 39 41 42 44 45 45 45 44 42 40 39 39 39 39 39 39 39 40 40 41 41 41 42 43 44 45 46 47 48 49 49 49 48 48 48 49 49 50
15 14 9 6 12 20 25 27 26 24 22 20 19 20 21 22 22 21 20 20 19 19 20 21 21 22 23 24 25 25 25 25 24 23 23 23 23 23 22 22 23 24 25 27 29 31 33 35 37 39 40 41 42 41 40 38 37 36 36 36 36 37 37 38 38 39 40 40 40 41 41 41 41 42 43 44 44 45 46 47 47 47 47 47 47 47 48
10 7 4 5 11 17 20 22 21 19 18 17 17 18 20 20 20 20 19 18 17 16 16 17 18 19 20 21 22 22 22 23 23 22 22 21 21 21 21 22 23 24 25 26 28 30 31 33 35 37 38 38 37 36 35 33 32 33 33 34 35 36 37 38 38 39 39 39 38 38 39 40 40 40 41 42 43 43 44 44 45 45 45 46 46 47 47
10 8 8 9 11 14 16 17 16 16 17 17 19 20 21 21 20 19 18 17 16 15 15 14 14 15 17 18 19 19 20 20 21 21 20 20 20 21 22 22 23 23 24 25 26 27 29 31 33 34 35 34 33 32 31 30 30 31 32 33 34 34 34 34 35 35 35 35 35 36 38 39 40 41 41 41 42 43 43 43 44 44 44 44 45 45 46
10 9 10 10 10 11 12 14 14 14 16 17 17 18 19 20 20 19 18 18 17 16 15 14 14 15 16 17 18 18 18 19 19 20 20 21 21 21 22 23 23 22 23 23 24 25 27 28 30 31 32 31 30 29 28 27 28 28 30 31 32 32 31 32 33 33 33 34 35 36 37 38 39 40 40 41 41 42 43 44 44 44 44 44 44 44 44
10 8 9 10 8 7 8 10 11 12 14 15 15 16 16 17 18 19 20 20 18 17 15 15 15 16 16 17 18 19 19 20 20 20 21 21 22 22 22 22 22 22 21 21 21 22 23 25 26 28 29 30 28 27 25 25 25 25 26 28 29 30 31 32 33 33 34 35 36 36 37 37 37 37 38 38 39 39 40 42 43 44 45 44 44 43 43
8 7 8 9 9 7 6 7 9 10 11 12 13 14 15 16 17 19 19 19 18 17 16 16 17 17 17 18 19 20 21 21 21 21 22 22 23 23 23 23 22 21 20 20 19 20 21 23 24 26 27 28 27 25 24 24 23 23 24 25 25 26 28 29 30 31 33 34 34 34 34 34 35 36 37 37 37 38 38 39 40 41 42 43 42 42 41
Wind_Direction
181 176 175 182 190 195 200 195 183 180 214 228 219 220 225 224 224 223 220 219 220 223 230 234 236 237 237 237 236 234 234 236 237 237 237 234 230 229 232 235 235 235 236 239 242 242 242 241 241 241 238 239 245 244 240 232 219 213 216 221 224 226 226 226 228 230 231 231 229 227 226 226 227 228 230 231 234 240 246 248 245 239 234 227 225 227 229
186 180 182 187 190 198 200 190 186 192 213 221 215 217 223 225 224 223 221 220 220 224 233 237 236 239 244 245 243 240 238 238 238 237 238 237 233 229 229 231 235 235 235 238 243 244 245 246 245 243 239 235 237 241 236 229 219 214 217 222 226 229 229 228 230 233 230 227 226 223 222 225 227 229 231 233 233 235 239 242 243 246 249 246 240 236 235
200 196 196 191 189 196 192 182 189 204 214 212 208 215 225 225 220 219 220 221 221 224 232 237 235 236 240 245 248 247 244 242 240 239 238 237 235 232 228 228 231 233 233 236 241 245 246 247 247 248 246 240 237 238 237 229 221 215 215 222 227 229 230 230 230 230 225 223 224 223 221 223 227 230 231 233 234 233 235 238 239 241 245 250 253 252 250
213 216 215 203 194 195 189 187 195 204 208 207 205 213 225 225 217 214 216 220 223 224 229 237 238 237 238 244 248 247 244 244 244 242 239 235 233 232 231 228 228 230 231 232 237 243 246 247 247 249 250 247 242 240 240 239 234 226 224 228 231 229 229 229 227 225 222 222 226 227 227 229 232 232 231 233 234 233 233 236 237 237 237 240 244 248 252
220 225 226 218 209 204 197 194 196 198 202 207 208 213 224 225 219 213 214 220 225 226 229 234 238 239 238 240 245 244 241 240 239 238 237 234 232 232 232 230 229 229 229 229 231 236 242 246 248 248 249 251 249 247 247 246 245 242 239 241 243 242 239 235 229 224 221 222 225 228 231 233 234 232 230 231 233 234 235 235 236 237 236 236 237 237 237
220 224 224 220 217 215 209 202 198 198 203 206 209 217 225 224 221 216 214 219 224 227 229 232 235 238 238 239 242 241 238 236 234 233 234 232 233 234 233 233 232 231 231 230 229 231 235 241 246 247 249 250 252 253 253 251 249 247 247 249 253 255 253 246 239 232 225 221 223 228 233 237 238 236 233 233 235 237 239 239 239 240 240 238 238 238 235
214 219 222 219 218 219 218 212 206 205 208 209 210 217 222 222 222 221 219 221 225 228 230 232 234 238 240 240 239 236 235 234 233 233 234 235 237 237 237 237 236 235 235 234 232 231 232 235 241 245 247 249 250 252 252 252 251 250 249 250 251 254 254 251 247 243 238 232 228 230 235 239 242 240 237 238 241 241 240 239 241 243 242 240 240 239 239
211 217 224 224 223 223 221 217 211 209 214 217 213 214 220 221 223 225 224 224 228 231 231 232 236 240 242 242 239 237 238 239 239 239 240 240 240 241 242 243 242 241 240 239 238 236 234 235 237 240 244 246 248 250 251 252 252 252 252 252 251 252 254 255 254 251 250 247 242 240 241 242 242 241 240 244 245 241 237 238 243 244 242 241 240 237 237
213 216 224 227 228 229 223 215 211 211 215 220 218 218 223 225 225 228 228 228 231 235 234 233 235 239 242 244 243 241 241 242 243 243 244 244 244 244 244 245 245 245 244 243 242 241 240 239 239 239 241 244 246 248 249 250 251 251 252 253 253 253 253 256 257 256 254 254 254 255 256 255 254 251 249 248 243 238 237 241 245 246 245 245 243 240 240
214 216 223 227 229 231 226 218 214 214 217 223 227 230 232 231 228 229 231 231 233 236 237 236 237 239 242 244 245 244 242 241 241 241 242 243 245 245 245 245 245 245 245 245 244 243 243 243 243 243 243 243 245 247 248 249 249 250 251 252 254 254 254 254 256 256 255 254 254 256 259 263 266 266 265 260 251 244 242 244 247 248 249 249 247 245 246
212 215 222 226 227 230 230 227 222 220 223 228 232 232 232 233 231 230 231 232 232 234 236 237 237 239 240 241 242 243 241 240 239 239 239 239 241 244 246 246 245 245 245 245 245 244 244 243 244 245 245 245 245 246 248 250 250 250 251 251 252 254 255 255 256 256 256 255 252 252 255 259 263 266 270 272 269 263 256 252 250 250 251 252 250 248 248
212 214 220 225 228 231 234 234 231 227 227 230 230 229 229 232 233 232 231 232 232 233 235 235 235 236 237 238 239 240 240 238 237 238 240 239 239 242 246 247 247 247 246 246 246 246 244 243 243 244 245 246 246 246 247 249 250 251 252 252 252 253 254 255 257 257 258 257 255 254 254 255 257 260 263 269 273 275 272 266 259 253 252 255 254 251 249
219 220 222 225 230 234 235 235 234 231 229 229 229 228 230 234 237 237 236 234 234 236 236 235 236 236 236 237 239 239 239 239 238 238 241 242 241 241 244 246 247 248 247 247 246 246 245 244 244 245 245 246 246 246 247 248 249 251 251 252 252 253 254 255 256 257 258 258 257 256 256 256 256 257 260 263 267 271 273 273 269 261 256 255 254 253 251
228 227 228 228 231 233 232 232 233 231 230 231 231 231 233 235 238 240 239 236 235 237 238 238 239 239 239 240 242 242 241 241 240 239 239 240 241 241 241 243 245 247 248 247 246 246 246 246 245 246 246 247 246 247 247 248 249 250 251 252 252 253 254 255 256 258 259 259 259 257 257 257 258 259 260 262 264 266 267 269 270 268 263 256 254 254 252
232 232 233 234 235 234 232 233 234 233 232 233 233 233 233 233 236 239 241 238 237 238 240 240 241 243 245 246 247 247 244 241 240 240 240 241 242 242 241 241 243 246 247 248 248 248 247 247 247 247 248 249 248 248 248 248 249 250 251 252 253 253 253 254 256 258 260 261 261 260 258 258 260 261 263 264 265 266 266 266 266 266 265 261 257 256 255
232 235 236 238 239 239 238 238 239 238 239 240 239 237 236 233 234 238 242 241 238 239 241 242 242 244 246 248 250 251 250 247 244 242 242 244 246 246 244 243 244 246 247 249 251 251 250 249 249 249 249 250 250 250 249 249 250 250 251 251 252 253 254 254 255 256 258 260 261 262 261 261 261 262 263 264 265 265 265 265 263 263 263 263 260 258 257
234 236 239 241 243 244 244 244 245 245 245 246 246 244 242 239 237 239 243 244 243 241 242 242 242 243 244 245 247 250 252 252 249 246 244 245 248 249 248 248 248 248 248 249 251 252 253 252 252 251 251 251 251 251 250 250 250 250 250 250 252 253 254 254 254 255 256 257 259 260 262 262 262 263 263 264 265 265 264 262 261 261 262 262 260 257 257
236 236 237 238 241 242 243 244 246 246 245 244 244 244 244 243 241 241 244 246 247 247 247 245 243 244 244 244 245 246 247 248 249 249 248 248 249 250 251 251 252 251 251 250 251 252 253 254 254 254 254 253 253 252 252 251 250 250 250 250 251 252 253 253 254 255 256 256 257 258 260 261 261 262 263 263 263 263 262 261 259 259 260 260 259 257 256
243 239 236 236 239 241 241 241 243 246 247 245 244 244 245 245 245 245 244 245 245 246 248 247 246 246 246 245 245 246 246 246 247 248 248 248 248 249 250 251 252 252 253 252 252 253 253 253 254 254 255 255 255 254 254 253 252 251 251 250 251 251 252 253 253 254 255 256 257 257 258 260 261 261 262 262 262 262 260 259 258 257 257 258 259 257 255
251 248 245 242 242 244 244 242 241 243 246 247 247 247 247 247 247 247 247 246 245 245 246 247 247 248 249 248 248 248 248 247 247 247 247 247 248 248 249 250 251 252 252 253 253 253 254 254 254 255 255 255 256 256 256 255 255 254 252 252 251 251 252 252 253 254 254 255 257 257 258 258 259 260 261 261 262 261 260 259 257 256 255 255 256 255 254
256 255 255 252 248 248 249 249 246 245 244 245 247 249 248 247 247 247 248 248 248 247 247 247 247 247 248 249 250 251 250 249 248 248 248 249 249 248 249 249 250 251 252 252 253 254 254 255 255 255 256 256 256 256 256 256 256 256 255 254 253 253 252 253 253 253 254 255 256 257 257 257 258 258 259 260 260 261 261 260 259 257 255 254 254 253 253
257 254 254 254 253 251 251 252 252 251 249 248 249 249 248 248 248 248 248 249 250 250 249 248 248 249 248 248 249 251 251 251 251 250 250 250 250 250 249 248 248 249 250 252 253 254 254 255 256 256 256 257 257 257 257 257 257 258 258 257 257 256 255 254 254 254 254 254 255 255 256 256 257 257 258 258 258 258 259 259 259 259 258 256 256 256 256
258 253 250 250 251 252 252 251 252 253 253 253 253 251 249 248 248 248 249 250 251 252 251 250 249 250 250 250 251 251 252 252 252 252 252 252 252 252 251 250 249 249 250 251 252 253 253 253 254 256 256 257 257 257 257 258 258 258 259 259 259 259 258 257 256 255 255 255 255 255 255 255 255 256 257 257 257 257 257 257 257 258 258 257 256 256 257
259 255 251 250 251 253 254 254 254 254 254 254 254 254 253 252 250 248 247 249 250 251 253 252 251 251 251 252 253 253 254 253 253 253 254 254 253 253 253 253 252 252 251 251 252 252 253 253 254 255 256 256 257 257 258 258 258 258 258 259 260 260 260 260 259 258 257 257 256 256 256 255 254 253 254 255 256 256 256 256 256 255 256 257 257 257 256
257 254 252 253 254 254 254 254 255 255 255 254 254 254 255 256 256 253 250 248 248 249 251 253 253 252 253 254 254 255 255 255 255 254 255 255 255 254 254 254 254 254 253 253 253 254 254 254 255 255 256 257 257 258 258 258 258 259 259 259 259 260 260 261 261 261 260 260 259 258 258 257 256 254 253 253 254 255 256 256 256 255 255 255 256 257 257
255 254 253 254 255 254 253 253 254 255 255 255 255 256 256 257 258 258 256 253 250 249 250 252 253 252 253 253 254 254 255 255 255 255 255 255 255 255 254 254 254 254 254 253 254 254 255 255 256 256 257 257 258 259 259 260 260 260 260 260 259 259 260 260 261 261 261 261 261 261 260 260 259 258 256 254 253 253 255 256 256 256 255 255 255 255 257
255 255 255 256 256 254 253 252 253 254 255 255 255 255 257 258 258 258 258 257 255 252 251 251 252 251 251 251 250 250 251 252 253 254 254 254 255 255 255 254 254 254 253 253 253 254 254 255 255 256 256 257 259 260 260 261 261 261 261 261 261 260 260 260 260 261 261 262 262 262 262 262 261 261 260 259 256 254 254 254 254 255 255 255 255 255 255
259 258 257 256 256 255 254 253 252 252 253 254 253 253 254 256 257 257 258 259 258 255 252 250 250 250 249 249 249 248 248 249 250 252 252 253 253 253 254 254 254 254 253 253 253 253 253 254 254 255 256 257 258 259 260 261 262 262 262 262 262 262 262 262 261 261 262 262 262 262 262 262 262 262 261 261 260 258 256 255 254 253 253 254 255 255 255
260 259 257 255 255 255 254 254 254 253 252 253 253 253 253 254 255 256 258 259 259 257 254 251 249 248 247 247 247 248 249 249 249 250 251 252 253 253 253 253 254 254 254 254 253 253 253 254 254 254 255 255 256 257 258 260 261 262 262 263 263 264 264 264 263 263 263 263 263 263 262 262 262 262 261 261 261 261 260 258 256 255 254 254 254 255 255
260 258 257 256 255 255 254 253 254 254 255 254 254 254 254 253 254 255 256 257 257 257 257 255 252 250 248 246 246 247 249 250 249 249 250 251 252 253 253 253 253 254 254 254 253 254 254 254 254 254 254 254 255 255 256 257 258 259 261 262 263 264 264 265 265 265 264 264 264 264 263 263 263 262 262 261 260 260 260 260 259 258 257 256 255 254 255
261 258 257 256 255 255 254 253 251 252 254 255 254 254 254 253 253 253 253 254 256 257 257 255 254 253 251 249 248 248 249 249 249 249 249 250 251 252 253 253 253 253 253 253 253 253 253 253 253 253 253 253 253 254 254 255 256 257 258 260 261 262 263 264 264 265 265 265 265 264 264 264 264 263 262 262 261 260 259 259 259 259 258 257 256 255 255
263 261 259 258 257 256 255 254 252 251 252 253 253 253 253 253 252 251 250 250 252 254 255 254 253 254 254 253 252 251 250 249 249 249 250 250 250 251 252 252 252 252 252 252 252 252 251 251 251 251 251 251 252 253 253 254 255 256 257 258 259 261 262 263 264 265 265 265 265 265 265 265 264 264 263 263 262 261 260 259 258 258 258 257 257 257 256
264 263 262 261 260 258 256 254 253 252 251 252 252 252 252 251 251 250 248 245 245 248 251 252 252 252 252 253 253 253 252 250 250 250 251 251 251 252 252 252 252 252 252 252 252 251 251 250 249 248 249 250 251 253 254 254 255 256 257 258 259 261 262 263 263 264 265 265 266 266 266 266 265 265 264 264 263 262 261 259 258 257 257 257 256 256 256
266 265 265 264 262 260 258 255 254 253 252 252 252 252 252 252 251 249 247 245 244 244 246 248 250 251 251 252 253 254 255 254 252 251 251 252 252 252 252 253 253 253 253 253 253 252 251 249 247 247 248 249 251 253 255 257 258 258 259 260 261 261 262 263 264 264 264 264 265 265 266 266 266 266 265 265 264 263 262 261 259 258 257 256 256 256 256
270 268 266 264 260 257 256 255 255 254 253 252 252 252 250 250 249 248 246 245 244 243 244 247 251 253 254 255 255 256 256 256 255 254 253 253 252 252 253 253 254 254 254 254 254 253 251 249 247 247 248 250 253 257 259 261 262 262 262 262 263 263 264 265 265 266 266 265 265 265 266 266 266 266 266 266 266 265 264 263 261 260 258 257 256 255 255
274 271 268 265 261 257 255 255 255 254 253 252 253 253 251 248 248 247 246 245 246 246 247 248 251 252 253 254 255 255 255 255 256 256 255 254 254 253 253 253 254 255 255 256 255 254 252 250 249 248 249 252 255 259 262 264 265 265 264 264 265 265 266 266 267 267 268 267 267 267 267 266 266 266 265 265 266 266 265 264 263 262 260 258 257 256 255
277 273 271 268 265 261 257 255 255 254 253 252 253 254 254 252 250 248 248 248 247 247 247 247 248 250 251 252 253 253 253 254 255 256 256 256 256 255 255 254 254 254 255 256 256 255 254 253 252 251 252 254 257 261 263 265 266 266 266 266 267 267 267 267 268 268 268 269 269 269 268 267 267 266 266 266 266 266 266 265 264 263 262 261 259 257 256
278 275 272 269 266 263 260 257 255 254 254 253 251 251 253 255 253 250 248 248 248 248 248 249 250 251 252 253 253 254 253 254 254 256 257 257 257 257 256 255 255 254 255 255 256 256 256 256 255 255 256 258 260 262 264 265 267 268 268 269 269 269 270 270 270 269 269 269 269 270 269 268 267 267 267 268 268 268 267 267 266 265 264 262 261 259 258
276 274 271 268 265 262 260 258 256 253 251 250 249 249 250 253 254 251 248 247 248 248 249 250 251 253 254 255 255 255 255 254 255 256 257 258 259 259 258 257 256 255 255 255 256 257 257 257 258 258 259 260 262 263 265 267 269 270 270 271 271 272 272 272 271 270 269 268 269 269 269 269 268 268 269 269 270 269 269 269 268 268 266 265 262 261 259
277 274 270 266 262 259 258 257 256 253 249 246 247 248 248 249 250 251 250 248 248 248 249 250 251 253 254 255 256 256 256 256 256 256 257 259 259 260 260 259 258 257 257 257 258 258 259 260 260 261 262 263 264 265 267 268 269 270 270 271 271 271 271 270 270 269 268 268 268 268 268 268 269 269 270 270 270 270 270 270 270 270 269 267 264 261 259
278 274 269 264 259 256 254 253 253 252 250 246 244 245 246 247 248 248 249 248 247 248 249 250 252 253 254 255 256 257 257 257 257 257 258 258 259 259 259 259 259 258 258 258 259 260 260 261 261 262 262 263 263 264 265 266 268 269 269 269 269 268 268 268 268 267 267 268 268 268 268 269 269 270 271 271 271 271 271 270 269 268 267 266 264 261 258
281 274 268 262 257 253 251 249 249 250 250 245 240 239 241 242 242 243 244 245 246 247 248 250 252 254 255 255 256 257 258 258 259 259 259 258 258 258 257 256 256 256 256 257 257 258 258 259 259 260 261 262 263 265 266 267 267 268 268 269 268 268 268 267 267 267 268 268 269 269 270 270 270 270 270 270 270 269 268 267 266 265 264 263 261 259 256
282 273 266 259 255 251 248 244 242 244 246 244 238 237 239 240 241 242 244 245 245 246 247 249 251 253 255 256 257 257 258 258 258 258 257 255 254 253 252 252 253 254 255 256 256 257 258 260 261 263 265 266 267 268 268 268 268 269 270 270 270 269 269 269 269 269 269 269 269 269 269 268 268 267 267 266 266 266 266 265 264 263 262 260 259 257 254
286 277 266 256 250 247 243 237 232 233 235 235 233 234 236 237 238 240 243 244 244 245 246 248 250 252 253 256 257 258 257 257 255 253 250 248 249 251 253 254 255 256 257 258 260 262 264 266 268 270 271 272 272 272 271 271 272 272 272 271 271 270 270 270 269 268 268 267 266 266 265 264 264 264 264 264 264 265 265 265 264 263 262 260 259 257 255
297 290 275 257 245 239 232 226 222 221 220 221 224 229 232 234 236 238 241 242 244 245 247 248 249 250 251 252 254 255 255 254 252 249 247 247 250 254 256 257 258 261 263 265 267 269 271 273 276 277 277 276 276 276 276 276 276 275 274 272 271 270 270 268 266 265 264 264 263 263 263 263 263 263 264 264 264 265 265 266 265 265 263 261 259 257 254
306 304 291 263 240 226 215 211 213 215 213 213 219 225 230 234 237 239 240 241 243 245 247 248 248 248 248 249 250 253 253 251 248 246 247 250 253 255 258 260 262 265 269 271 274 277 279 280 281 282 281 281 280 280 279 278 277 275 274 272 270 269 268 267 266 265 265 265 265 265 265 265 265 266 266 265 265 265 265 266 266 265 264 262 259 256 253
316 318 314 257 213 203 199 200 206 209 208 208 216 224 229 232 233 234 235 237 239 243 246 247 246 246 246 247 248 250 250 248 246 244 246 250 254 256 259 263 267 270 273 277 280 282 284 286 287 287 287 286 284 281 279 277 275 273 272 272 271 270 270 270 269 269 269 268 268 268 268 268 268 267 267 267 266 266 266 266 265 265 264 262 260 257 254
343 355 38 137 171 181 186 191 198 202 202 205 213 224 231 233 231 229 229 232 236 240 243 244 244 244 245 246 247 247 246 246 245 244 245 248 252 256 260 264 268 271 275 279 283 286 290 293 295 294 292 288 284 280 278 276 275 274 274 274 273 273 273 272 271 270 270 269 269 269 269 269 269 268 267 266 266 265 265 264 264 263 263 262 260 258 256
29 51 83 117 145 162 172 180 189 197 202 204 210 218 225 229 228 227 227 230 233 237 240 243 245 246 247 247 247 245 243 242 242 243 244 247 251 256 260 263 266 270 274 280 285 291 297 300 302 301 297 291 285 280 278 277 276 275 276 276 276 275 274 273 272 271 270 269 269 269 269 269 269 269 267 266 265 264 264 263 263 262 261 261 260 259 257
49 71 93 112 131 154 171 181 193 204 210 211 215 220 225 227 227 227 229 232 235 238 241 244 247 249 250 249 248 246 245 244 245 246 249 251 253 255 259 262 264 268 274 281 289 296 302 306 308 308 306 300 291 283 279 278 277 276 277 278 278 278 276 275 274 273 272 271 270 270 270 271 271 270 269 268 266 265 263 262 262 261 260 260 260 259 258
55 78 102 116 126 145 166 181 193 204 211 214 218 224 229 232 233 233 234 236 237 238 241 244 247 249 251 252 251 250 250 250 250 251 252 253 254 256 258 262 265 269 275 283 291 300 307 311 313 314 314 310 301 290 281 278 277 277 277 278 279 278 277 275 274 272 272 271 271 271 272 272 271 270 269 268 266 265 264 263 261 260 259 258 258 258 258
60 82 107 123 137 153 172 185 193 200 207 215 222 229 234 236 236 236 236 236 235 235 237 241 244 247 249 251 253 254 254 253 253 251 251 253 255 255 256 258 262 267 273 282 291 301 310 315 317 318 319 317 310 299 286 280 279 281 281 280 279 278 277 276 274 273 272 272 272 272 273 273 273 273 271 269 267 266 265 264 263 261 259 256 256 256 257
Height
5794 5795 5796 5799 5802 5804 5807 5812 5817 5820 5820 5821 5824 5827 5827 5827 5829 5831 5834 5837 5838 5841 5842 5843 5845 5845 5845 5847 5853 5858 5860 5862 5865 5868 5870 5873 5876 5878 5880 5881 5884 5886 5888 5890 5891 5893 5895 5897 5899 5900 5901 5903 5903 5903 5903 5904 5906 5909 5910 5911 5912 5913 5915 5916 5918 5920 5923 5926 5927 5928 5929 5931 5933 5936 5938 5941 5943 5946 5949 5951 5952 5951 5950 5950 5950 5951 5952
5791 5793 5794 5795 5799 5801 5805 5810 5814 5815 5813 5813 5818 5822 5822 5823 5826 5830 5833 5836 5837 5839 5840 5841 5842 5842 5842 5845 5849 5854 5857 5858 5861 5864 5867 5870 5873 5875 5877 5879 5881 5883 5885 5887 5888 5889 5891 5894 5896 5898 5900 5902 5903 5903 5903 5904 5905 5907 5908 5910 5911 5912 5913 5914 5916 5918 5920 5923 5924 5925 5927 5928 5930 5932 5935 5937 5939 5941 5944 5946 5948 5949 5949 5950 5950 5950 5950
5791 5793 5793 5794 5797 5800 5803 5806 5806 5807 5809 5813 5818 5820 5818 5819 5824 5829 5831 5833 5835 5837 5838 5837 5838 5839 5842 5844 5847 5850 5853 5855 5857 5860 5863 5865 5868 5871 5874 5876 5878 5880 5882 5884 5885 5886 5888 5890 5892 5894 5896 5899 5901 5902 5903 5904 5905 5906 5907 5908 5909 5910 5911 5912 5913 5915 5917 5919 5920 5922 5923 5925 5926 5929 5931 5933 5934 5936 5939 5941 5942 5944 5945 5947 5948 5949 5949
5790 5791 5792 5795 5797 5799 5802 5802 5802 5805 5810 5814 5817 5816 5813 5814 5820 5826 5828 5829 5831 5834 5835 5834 5835 5837 5840 5842 5845 5848 5851 5852 5854 5856 5859 5861 5864 5867 5870 5872 5875 5877 5879 5881 5882 5883 5884 5886 5889 5891 5892 5894 5897 5899 5901 5903 5904 5905 5906 5907 5908 5909 5909 5909 5910 5911 5913 5915 5916 5918 5920 5922 5924 5926 5927 5928 5930 5931 5934 5936 5938 5939 5941 5943 5945 5947 5948
5787 5788 5789 5792 5795 5797 5799 5799 5800 5804 5808 5811 5813 5811 5809 5809 5816 5823 5825 5825 5827 5830 5831 5831 5832 5835 5838 5840 5842 5846 5849 5850 5852 5853 5855 5858 5860 5862 5865 5868 5871 5873 5875 5878 5879 5880 5881 5883 5885 5887 5889 5891 5893 5895 5898 5900 5901 5903 5904 5905 5906 5906 5906 5906 5908 5909 5910 5912 5914 5916 5918 5920 5922 5923 5924 5925 5926 5929 5931 5933 5935 5937 5938 5939 5941 5943 5945
5784 5784 5785 5787 5790 5793 5795 5797 5800 5803 5804 5806 5807 5806 5805 5807 5813 5820 5822 5822 5823 5826 5827 5828 5830 5832 5835 5836 5839 5843 5846 5848 5849 5850 5852 5854 5856 5858 5861 5863 5866 5869 5871 5874 5876 5878 5879 5880 5881 5883 5886 5887 5889 5892 5894 5896 5898 5900 5901 5902 5903 5903 5904 5905 5906 5908 5909 5910 5912 5914 5916 5918 5920 5921 5922 5923 5924 5927 5929 5932 5934 5935 5936 5936 5938 5939 5941
5781 5781 5782 5784 5787 5788 5791 5796 5801 5802 5801 5802 5802 5802 5804 5807 5812 5816 5819 5820 5822 5823 5824 5826 5828 5829 5831 5833 5836 5839 5842 5845 5846 5848 5850 5851 5853 5855 5857 5859 5861 5864 5866 5869 5871 5874 5876 5878 5879 5880 5882 5884 5886 5888 5890 5892 5894 5896 5898 5900 5901 5902 5903 5904 5905 5906 5907 5909 5911 5912 5914 5916 5917 5919 5920 5921 5922 5925 5927 5929 5930 5932 5933 5933 5934 5935 5936
5778 5779 5781 5782 5783 5785 5789 5795 5798 5798 5799 5800 5802 5803 5804 5807 5809 5811 5814 5818 5818 5818 5820 5823 5824 5824 5826 5828 5832 5835 5839 5842 5844 5845 5847 5848 5850 5852 5853 5855 5857 5859 5861 5864 5866 5869 5872 5874 5876 5878 5879 5881 5883 5884 5886 5888 5890 5892 5894 5896 5898 5900 5901 5902 5903 5905 5906 5907 5909 5910 5912 5913 5914 5916 5918 5919 5920 5921 5923 5925 5926 5928 5929 5929 5929 5930 5931
5776 5778 5778 5779 5780 5782 5787 5791 5793 5794 5796 5798 5800 5802 5803 5805 5807 5808 5810 5814 5814 5814 5816 5819 5820 5820 5821 5824 5827 5830 5834 5838 5841 5842 5844 5845 5847 5849 5850 5852 5853 5855 5857 5859 5861 5864 5867 5869 5872 5874 5876 5877 5879 5881 5882 5884 5886 5889 5890 5892 5894 5896 5898 5899 5901 5902 5904 5905 5907 5908 5909 5911 5912 5914 5915 5917 5917 5919 5920 5922 5923 5924 5925 5926 5926 5927 5928
5773 5775 5775 5775 5777 5778 5782 5786 5788 5791 5793 5794 5796 5799 5801 5803 5804 5805 5806 5808 5809 5810 5811 5813 5814 5815 5816 5819 5822 5825 5829 5834 5836 5839 5840 5842 5844 5846 5846 5848 5849 5851 5853 5855 5857 5859 5862 5864 5867 5869 5871 5873 5875 5876 5878 5880 5882 5884 5886 5888 5890 5891 5893 5895 5897 5899 5901 5903 5905 5906 5908 5909 5910 5911 5912 5913 5914 5916 5917 5918 5919 5920 5921 5923 5924 5925 5927
5770 5771 5772 5772 5773 5774 5778 5782 5785 5789 5791 5791 5792 5795 5796 5797 5799 5801 5802 5803 5804 5804 5804 5806 5808 5809 5812 5815 5817 5820 5825 5830 5832 5834 5836 5839 5842 5842 5842 5843 5846 5847 5849 5851 5853 5855 5858 5861 5862 5864 5866 5868 5870 5872 5873 5875 5877 5879 5882 5884 5886 5887 5889 5891 5893 5895 5898 5900 5902 5904 5905 5906 5907 5908 5909 5910 5911 5912 5913 5914 5915 5916 5918 5919 5920 5922 5924
5767 5768 5769 5769 5770 5772 5775 5778 5782 5785 5786 5786 5787 5789 5790 5791 5794 5797 5799 5799 5799 5799 5799 5802 5803 5805 5809 5811 5811 5816 5822 5826 5828 5830 5832 5835 5838 5839 5838 5839 5842 5843 5844 5847 5849 5851 5853 5856 5857 5859 5861 5863 5865 5867 5869 5870 5872 5874 5877 5879 5882 5883 5885 5886 5888 5890 5893 5895 5898 5900 5902 5903 5904 5905 5906 5907 5908 5909 5910 5911 5912 5912 5914 5915 5916 5917 5919
5765 5765 5766 5767 5767 5769 5772 5775 5778 5780 5780 5781 5783 5784 5786 5788 5791 5794 5795 5796 5796 5796 5797 5798 5799 5801 5804 5805 5808 5814 5819 5821 5824 5827 5828 5830 5833 5834 5834 5835 5838 5838 5839 5841 5844 5845 5848 5851 5853 5854 5856 5858 5860 5862 5864 5866 5867 5869 5871 5874 5877 5879 5881 5882 5884 5885 5887 5890 5893 5895 5897 5899 5900 5902 5903 5904 5905 5906 5907 5908 5908 5909 5910 5910 5911 5912 5913
5762 5763 5763 5764 5764 5766 5769 5771 5773 5774 5776 5777 5779 5781 5783 5786 5788 5789 5790 5791 5793 5793 5793 5794 5796 5798 5799 5801 5806 5811 5814 5815 5818 5821 5823 5825 5826 5827 5829 5831 5833 5832 5833 5835 5837 5839 5842 5846 5848 5849 5851 5852 5855 5857 5859 5861 5862 5864 5866 5868 5871 5874 5876 5878 5879 5880 5881 5884 5887 5890 5892 5894 5895 5897 5899 5900 5901 5902 5903 5904 5904 5905 5906 5906 5907 5907 5907
5759 5760 5760 5761 5762 5763 5765 5767 5768 5770 5772 5774 5775 5777 5780 5782 5783 5783 5784 5786 5788 5789 5790 5792 5795 5796 5797 5798 5801 5803 5806 5808 5811 5814 5816 5818 5819 5820 5823 5826 5827 5827 5828 5829 5831 5834 5838 5840 5842 5844 5845 5847 5850 5852 5854 5855 5857 5859 5861 5863 5865 5868 5870 5872 5874 5875 5876 5877 5880 5883 5886 5888 5890 5892 5893 5895 5896 5898 5899 5900 5900 5901 5901 5902 5902 5902 5902
5756 5756 5757 5758 5759 5760 5762 5763 5765 5766 5768 5769 5771 5773 5775 5777 5778 5779 5778 5779 5783 5785 5786 5789 5791 5793 5794 5795 5795 5797 5799 5802 5805 5808 5810 5812 5813 5814 5817 5821 5822 5822 5823 5825 5826 5828 5832 5834 5835 5838 5840 5842 5844 5846 5848 5850 5851 5853 5856 5857 5858 5861 5864 5866 5869 5870 5871 5873 5874 5876 5879 5882 5884 5886 5888 5889 5891 5892 5894 5895 5895 5896 5896 5897 5898 5898 5898
5753 5753 5754 5755 5756 5757 5759 5760 5761 5763 5764 5765 5767 5768 5770 5771 5773 5774 5774 5775 5779 5781 5782 5785 5787 5787 5789 5791 5792 5793 5793 5795 5798 5800 5803 5805 5807 5809 5812 5814 5815 5816 5818 5820 5821 5822 5825 5827 5829 5831 5833 5835 5838 5840 5842 5844 5846 5848 5849 5851 5852 5854 5857 5859 5862 5864 5866 5868 5869 5871 5873 5875 5878 5880 5882 5883 5885 5887 5889 5890 5890 5891 5892 5892 5893 5893 5894
5749 5750 5751 5752 5752 5753 5754 5755 5756 5757 5758 5760 5761 5763 5764 5766 5768 5770 5771 5773 5775 5777 5777 5779 5781 5782 5783 5786 5788 5788 5788 5789 5791 5794 5797 5800 5802 5804 5805 5807 5808 5810 5812 5814 5815 5817 5818 5820 5823 5825 5827 5829 5831 5833 5836 5838 5840 5841 5843 5844 5846 5848 5849 5852 5855 5857 5859 5861 5863 5865 5867 5869 5871 5873 5875 5877 5879 5881 5882 5884 5885 5886 5887 5887 5888 5888 5889
5745 5746 5747 5748 5748 5748 5749 5750 5751 5752 5753 5755 5756 5758 5759 5761 5763 5765 5767 5768 5770 5771 5771 5773 5775 5777 5778 5780 5781 5781 5782 5784 5786 5789 5791 5793 5795 5796 5798 5800 5802 5804 5805 5807 5809 5811 5812 5814 5816 5819 5820 5822 5824 5826 5829 5830 5832 5835 5836 5838 5840 5842 5843 5845 5847 5850 5852 5854 5856 5858 5861 5863 5864 5866 5869 5871 5872 5874 5876 5878 5879 5880 5881 5882 5883 5883 5884
5742 5742 5742 5743 5744 5744 5744 5745 5747 5747 5748 5750 5751 5753 5755 5757 5758 5760 5761 5762 5764 5765 5766 5768 5770 5771 5772 5773 5774 5775 5777 5779 5781 5783 5784 5786 5788 5790 5792 5794 5796 5797 5798 5800 5802 5804 5806 5808 5810 5812 5814 5816 5818 5819 5821 5823 5825 5827 5829 5832 5834 5835 5837 5838 5840 5843 5845 5847 5849 5852 5854 5856 5858 5859 5862 5864 5866 5867 5869 5871 5873 5875 5876 5877 5878 5879 5880
5738 5739 5738 5739 5740 5740 5739 5740 5741 5742 5744 5746 5747 5748 5750 5751 5753 5754 5755 5756 5757 5759 5761 5763 5765 5765 5767 5768 5769 5770 5772 5774 5776 5777 5779 5780 5782 5784 5786 5788 5789 5790 5791 5793 5795 5797 5800 5802 5803 5805 5806 5808 5810 5812 5814 5816 5818 5820 5822 5824 5827 5828 5830 5832 5834 5836 5838 5840 5842 5845 5847 5849 5851 5853 5855 5857 5859 5860 5862 5864 5866 5868 5870 5872 5873 5873 5875
5733 5734 5734 5734 5735 5735 5735 5736 5736 5737 5739 5741 5742 5742 5744 5746 5747 5748 5749 5750 5751 5753 5755 5757 5758 5759 5761 5763 5764 5765 5766 5768 5770 5771 5772 5774 5775 5777 5779 5781 5782 5783 5785 5787 5789 5792 5793 5795 5796 5797 5799 5801 5803 5805 5807 5809 5811 5813 5815 5817 5819 5821 5823 5825 5827 5829 5831 5833 5835 5837 5840 5843 5845 5846 5848 5850 5852 5854 5855 5857 5859 5861 5863 5865 5867 5868 5869
5727 5728 5729 5729 5729 5729 5730 5731 5732 5732 5734 5735 5736 5737 5738 5740 5741 5743 5744 5745 5746 5747 5749 5750 5752 5753 5755 5757 5759 5760 5761 5762 5763 5764 5765 5767 5769 5771 5772 5774 5776 5778 5780 5782 5783 5785 5786 5787 5788 5790 5792 5794 5795 5798 5800 5802 5804 5806 5808 5810 5811 5813 5815 5817 5819 5822 5824 5825 5827 5830 5833 5835 5838 5840 5841 5843 5845 5847 5848 5850 5853 5855 5856 5858 5860 5862 5863
5721 5721 5723 5723 5724 5724 5725 5726 5727 5728 5729 5730 5730 5731 5732 5733 5735 5737 5739 5740 5741 5742 5743 5744 5746 5748 5750 5751 5752 5754 5755 5756 5757 5758 5759 5760 5762 5764 5765 5767 5770 5773 5774 5775 5776 5777 5779 5780 5782 5783 5785 5786 5788 5790 5793 5795 5797 5799 5801 5803 5805 5806 5808 5809 5811 5813 5816 5818 5820 5822 5824 5827 5830 5833 5835 5836 5838 5839 5841 5843 5846 5848 5849 5851 5853 5855 5857
5715 5715 5716 5717 5718 5719 5719 5720 5721 5722 5723 5724 5725 5726 5726 5727 5728 5730 5732 5734 5736 5737 5737 5738 5740 5742 5743 5745 5746 5748 5749 5750 5751 5752 5752 5753 5755 5757 5758 5760 5763 5765 5767 5768 5769 5770 5772 5773 5775 5777 5778 5779 5780 5783 5785 5787 5789 5791 5793 5795 5797 5799 5800 5802 5803 5806 5808 5809 5811 5813 5816 5818 5821 5824 5827 5830 5831 5832 5833 5836 5838 5840 5842 5844 5846 5847 5848
5709 5709 5710 5710 5711 5712 5712 5713 5714 5715 5716 5717 5719 5720 5721 5721 5722 5723 5725 5728 5730 5731 5732 5732 5734 5736 5737 5739 5741 5742 5743 5744 5745 5745 5746 5747 5748 5749 5751 5753 5755 5757 5759 5761 5762 5763 5764 5766 5768 5769 5770 5771 5773 5775 5777 5779 5781 5783 5785 5787 5789 5791 5793 5794 5796 5797 5799 5801 5803 5805 5807 5810 5813 5816 5819 5822 5824 5826 5827 5828 5830 5833 5834 5836 5838 5839 5841
5702 5702 5703 5703 5704 5704 5705 5707 5708 5708 5709 5710 5712 5713 5714 5714 5715 5717 5718 5720 5722 5724 5726 5726 5728 5729 5731 5732 5734 5736 5737 5738 5738 5739 5740 5741 5742 5743 5744 5746 5748 5750 5751 5753 5755 5756 5758 5759 5760 5762 5763 5765 5766 5768 5769 5771 5773 5774 5776 5778 5780 5782 5784 5786 5788 5789 5791 5793 5795 5797 5799 5801 5804 5807 5809 5812 5815 5818 5819 5821 5823 5825 5826 5827 5829 5832 5834
5696 5696 5697 5697 5697 5697 5698 5699 5701 5702 5702 5703 5704 5706 5707 5707 5708 5709 5711 5713 5715 5717 5719 5720 5721 5723 5724 5726 5728 5730 5732 5732 5733 5733 5734 5735 5736 5737 5738 5739 5741 5743 5744 5746 5748 5749 5751 5752 5753 5755 5756 5758 5760 5761 5762 5763 5764 5766 5767 5769 5771 5773 5775 5777 5779 5781 5783 5784 5786 5788 5790 5792 5794 5797 5799 5802 5804 5807 5810 5813 5815 5816 5818 5819 5821 5823 5825
5690 5690 5690 5690 5690 5691 5692 5693 5693 5694 5695 5696 5697 5698 5700 5701 5702 5703 5704 5706 5707 5709 5711 5713 5715 5716 5718 5720 5723 5724 5725 5725 5726 5727 5729 5730 5731 5732 5733 5734 5735 5736 5738 5740 5741 5742 5744 5745 5747 5749 5750 5751 5753 5754 5755 5756 5757 5758 5759 5760 5762 5764 5766 5768 5770 5772 5774 5775 5777 5779 5781 5783 5784 5787 5789 5792 5794 5797 5799 5802 5805 5807 5809 5811 5812 5813 5815
5685 5684 5684 5684 5684 5685 5686 5687 5687 5687 5688 5689 5690 5691 5692 5694 5695 5697 5698 5699 5700 5701 5703 5705 5707 5709 5711 5714 5717 5718 5718 5717 5719 5721 5723 5725 5726 5727 5728 5729 5730 5731 5732 5733 5734 5736 5737 5739 5740 5742 5743 5744 5746 5747 5749 5750 5750 5751 5752 5753 5755 5756 5757 5759 5761 5763 5765 5766 5768 5769 5771 5773 5775 5777 5779 5782 5784 5787 5789 5791 5794 5797 5799 5801 5803 5804 5805
5679 5679 5679 5678 5679 5679 5680 5681 5682 5682 5682 5682 5683 5684 5685 5687 5688 5690 5692 5693 5694 5695 5696 5697 5699 5702 5704 5707 5710 5711 5710 5709 5712 5715 5717 5718 5720 5722 5723 5724 5725 5725 5726 5727 5728 5730 5731 5733 5734 5735 5736 5737 5739 5740 5742 5743 5744 5744 5746 5747 5748 5749 5750 5751 5753 5754 5755 5757 5758 5760 5761 5763 5764 5766 5769 5771 5773 5776 5779 5781 5783 5785 5787 5790 5792 5794 5796
5674 5673 5673 5673 5673 5674 5674 5675 5675 5676 5676 5676 5677 5678 5679 5681 5682 5683 5685 5687 5688 5689 5690 5690 5692 5695 5697 5700 5702 5702 5701 5702 5705 5707 5710 5712 5714 5715 5717 5718 5719 5720 5720 5722 5723 5724 5725 5727 5728 5729 5729 5730 5732 5733 5735 5736 5737 5738 5739 5740 5741 5743 5743 5744 5746 5746 5747 5748 5749 5750 5752 5753 5755 5756 5758 5760 5762 5765 5768 5770 5772 5773 5775 5778 5780 5782 5785
5668 5667 5667 5667 5667 5668 5668 5669 5669 5669 5670 5671 5671 5672 5673 5675 5676 5677 5678 5680 5682 5684 5684 5684 5686 5688 5691 5692 5693 5694 5694 5696 5698 5700 5703 5705 5707 5708 5710 5711 5712 5713 5715 5716 5717 5719 5720 5721 5722 5722 5723 5724 5725 5726 5728 5729 5730 5731 5732 5734 5735 5736 5737 5737 5738 5739 5740 5741 5741 5742 5742 5743 5745 5746 5747 5749 5751 5753 5756 5759 5761 5763 5764 5766 5768 5770 5773
5661 5661 5661 5661 5661 5661 5662 5662 5663 5663 5664 5665 5665 5666 5667 5668 5669 5671 5673 5674 5676 5677 5678 5678 5680 5682 5684 5685 5686 5687 5689 5690 5692 5694 5696 5698 5699 5700 5702 5703 5705 5706 5708 5710 5711 5713 5714 5715 5715 5715 5716 5717 5718 5720 5721 5723 5724 5725 5726 5727 5728 5729 5730 5730 5731 5732 5733 5733 5733 5733 5734 5735 5735 5736 5737 5738 5740 5742 5745 5747 5750 5752 5754 5755 5756 5757 5760
5654 5654 5654 5654 5654 5655 5656 5656 5656 5656 5658 5659 5659 5660 5661 5662 5663 5665 5666 5668 5669 5672 5673 5674 5675 5676 5677 5678 5680 5682 5683 5685 5686 5688 5689 5691 5692 5693 5695 5696 5698 5700 5701 5703 5705 5707 5707 5707 5708 5709 5710 5711 5711 5713 5715 5716 5716 5717 5719 5720 5721 5721 5722 5722 5722 5723 5724 5725 5725 5725 5726 5726 5727 5727 5728 5729 5730 5731 5733 5736 5738 5740 5742 5744 5744 5746 5748
5647 5647 5646 5646 5647 5648 5649 5650 5650 5650 5652 5653 5653 5654 5655 5657 5658 5659 5661 5663 5665 5666 5668 5669 5669 5670 5671 5672 5674 5675 5677 5679 5680 5681 5682 5683 5685 5686 5688 5689 5691 5693 5694 5696 5698 5698 5699 5699 5701 5703 5704 5705 5706 5707 5707 5707 5708 5709 5710 5711 5712 5713 5713 5713 5714 5714 5714 5715 5716 5717 5717 5717 5718 5718 5719 5719 5720 5721 5722 5724 5726 5727 5729 5732 5733 5735 5737
5640 5640 5639 5639 5640 5641 5642 5643 5644 5645 5646 5647 5648 5649 5650 5651 5652 5654 5656 5658 5659 5660 5661 5662 5663 5664 5666 5667 5668 5670 5671 5673 5674 5674 5675 5677 5678 5680 5681 5683 5684 5686 5688 5689 5689 5690 5691 5693 5695 5696 5697 5698 5699 5700 5699 5698 5698 5700 5701 5703 5703 5704 5704 5704 5705 5705 5705 5705 5706 5707 5707 5708 5708 5708 5708 5709 5709 5710 5711 5712 5714 5715 5717 5719 5721 5723 5726
5632 5632 5632 5632 5632 5633 5634 5635 5637 5639 5640 5641 5642 5643 5645 5646 5647 5649 5651 5652 5653 5654 5655 5656 5657 5659 5661 5662 5663 5664 5666 5667 5667 5668 5669 5671 5672 5673 5674 5676 5678 5679 5681 5681 5682 5683 5684 5685 5687 5689 5690 5691 5691 5691 5690 5689 5690 5691 5693 5693 5693 5694 5694 5695 5696 5696 5696 5696 5696 5696 5697 5697 5698 5698 5698 5698 5698 5699 5700 5701 5701 5703 5704 5706 5709 5712 5716
5624 5624 5624 5625 5625 5626 5627 5628 5630 5632 5634 5635 5636 5638 5639 5641 5643 5644 5645 5646 5647 5648 5650 5651 5652 5654 5655 5656 5658 5659 5660 5661 5661 5662 5663 5665 5666 5667 5668 5670 5671 5672 5673 5674 5675 5676 5677 5678 5679 5681 5682 5682 5682 5682 5682 5682 5682 5683 5683 5684 5684 5684 5685 5686 5686 5687 5687 5686 5686 5686 5686 5686 5687 5687 5688 5688 5687 5688 5689 5689 5689 5689 5690 5692 5696 5701 5705
5617 5617 5617 5618 5618 5619 5620 5621 5623 5625 5627 5629 5631 5633 5634 5636 5638 5639 5639 5640 5642 5644 5645 5646 5648 5649 5650 5651 5652 5653 5654 5655 5656 5657 5658 5659 5660 5661 5662 5663 5664 5665 5666 5667 5668 5669 5670 5671 5672 5672 5673 5673 5674 5674 5674 5674 5674 5674 5675 5675 5675 5675 5676 5676 5676 5676 5676 5676 5676 5676 5676 5676 5676 5676 5676 5676 5676 5677 5677 5677 5677 5677 5676 5678 5682 5688 5692
5609 5609 5610 5610 5611 5612 5614 5615 5616 5618 5620 5623 5625 5627 5629 5631 5633 5634 5634 5636 5637 5639 5640 5642 5643 5644 5645 5646 5647 5648 5649 5650 5651 5652 5653 5654 5655 5655 5656 5657 5658 5659 5660 5661 5661 5662 5663 5664 5664 5665 5665 5666 5666 5666 5666 5666 5666 5666 5666 5666 5666 5667 5667 5666 5666 5666 5666 5666 5667 5666 5666 5665 5665 5664 5664 5664 5664 5664 5665 5664 5664 5663 5663 5664 5668 5674 5679
5602 5602 5603 5603 5604 5605 5607 5609 5611 5613 5615 5618 5620 5622 5624 5626 5627 5628 5630 5631 5633 5634 5636 5637 5639 5640 5641 5642 5643 5643 5644 5645 5646 5647 5648 5648 5649 5650 5651 5652 5653 5653 5654 5655 5655 5656 5657 5657 5658 5658 5659 5659 5659 5659 5659 5659 5659 5658 5658 5658 5658 5657 5657 5657 5656 5656 5656 5656 5656 5656 5655 5654 5653 5653 5653 5652 5651 5651 5652 5651 5650 5651 5651 5652 5654 5659 5663
5594 5594 5595 5596 5598 5599 5600 5603 5606 5609 5611 5613 5615 5617 5619 5620 5622 5623 5625 5627 5629 5630 5631 5633 5635 5636 5637 5638 5639 5639 5640 5641 5642 5643 5643 5644 5644 5645 5646 5647 5648 5648 5649 5650 5650 5651 5651 5652 5652 5652 5652 5652 5652 5652 5651 5651 5651 5650 5650 5649 5648 5647 5647 5647 5646 5646 5645 5645 5644 5644 5643 5643 5642 5642 5642 5641 5640 5640 5640 5639 5639 5639 5640 5641 5642 5645 5648
5586 5586 5586 5588 5590 5591 5594 5597 5600 5603 5606 5608 5611 5613 5614 5615 5617 5619 5621 5623 5624 5626 5627 5629 5630 5632 5633 5634 5635 5635 5636 5637 5638 5639 5639 5640 5641 5642 5642 5643 5644 5644 5645 5645 5645 5646 5646 5646 5646 5646 5645 5645 5645 5644 5643 5643 5642 5641 5640 5639 5638 5637 5636 5635 5635 5634 5634 5634 5633 5633 5633 5633 5633 5633 5632 5632 5631 5631 5630 5630 5630 5630 5630 5631 5632 5634 5636
5582 5580 5579 5579 5580 5583 5587 5591 5595 5598 5601 5603 5606 5609 5610 5612 5613 5615 5617 5619 5620 5622 5623 5625 5626 5627 5628 5630 5631 5632 5632 5633 5634 5635 5635 5636 5637 5638 5638 5639 5640 5640 5640 5640 5640 5640 5640 5640 5640 5639 5639 5638 5637 5636 5635 5634 5633 5632 5630 5629 5628 5627 5626 5626 5625 5625 5625 5625 5625 5625 5625 5625 5625 5625 5624 5623 5623 5622 5622 5621 5621 5621 5622 5622 5623 5624 5626
5577 5575 5572 5572 5573 5577 5582 5587 5591 5595 5597 5600 5603 5605 5607 5609 5610 5612 5614 5616 5617 5619 5620 5621 5622 5623 5624 5625 5627 5628 5628 5629 5630 5631 5631 5632 5633 5634 5634 5635 5635 5635 5635 5635 5635 5635 5635 5634 5634 5633 5632 5631 5629 5628 5626 5625 5624 5623 5621 5620 5620 5619 5619 5618 5618 5618 5618 5618 5618 5617 5617 5617 5617 5617 5616 5616 5615 5615 5614 5614 5614 5614 5614 5614 5614 5615 5616
5574 5571 5569 5569 5571 5575 5580 5585 5589 5593 5596 5599 5602 5604 5605 5606 5608 5610 5611 5613 5614 5616 5617 5617 5618 5619 5620 5621 5623 5624 5624 5625 5626 5627 5627 5628 5629 5630 5630 5631 5631 5631 5631 5630 5630 5630 5629 5628 5627 5626 5625 5623 5621 5620 5618 5617 5616 5615 5614 5614 5613 5612 5612 5612 5611 5611 5611 5611 5611 5610 5610 5610 5610 5609 5609 5608 5608 5607 5607 5606 5606 5606 5606 5606 5607 5607 5608
5575 5572 5570 5571 5574 5578 5581 5586 5590 5594 5596 5599 5601 5602 5603 5604 5605 5607 5608 5610 5611 5613 5613 5614 5614 5615 5616 5617 5619 5620 5620 5621 5622 5623 5624 5624 5625 5626 5626 5627 5627 5627 5626 5626 5626 5625 5624 5623 5621 5619 5617 5615 5614 5612 5611 5610 5610 5609 5608 5607 5607 5606 5606 5605 5605 5605 5604 5604 5604 5604 5603 5603 5602 5602 5601 5601 5600 5600 5599 5599 5598 5598 5598 5599 5599 5599 5600
5577 5576 5575 5576 5578 5581 5584 5588 5591 5594 5595 5596 5598 5599 5600 5601 5603 5604 5606 5607 5609 5610 5610 5611 5611 5612 5613 5614 5615 5616 5617 5618 5618 5619 5620 5621 5621 5622 5622 5623 5623 5623 5623 5622 5621 5620 5619 5617 5615 5613 5611 5609 5607 5606 5605 5605 5604 5603 5602 5602 5601 5600 5600 5599 5599 5598 5598 5598 5597 5597 5596 5596 5595 5594 5594 5593 5593 5592 5592 5591 5591 5591 5591 5591 5591 5592 5593
5581 5580 5580 5580 5582 5584 5586 5589 5591 5592 5593 5594 5595 5597 5598 5599 5601 5602 5603 5605 5606 5607 5608 5608 5609 5610 5611 5611 5612 5613 5614 5614 5615 5615 5616 5617 5618 5618 5619 5619 5619 5619 5619 5618 5617 5616 5614 5613 5611 5608 5606 5603 5602 5600 5600 5599 5599 5598 5597 5596 5596 5595 5594 5594 5593 5592 5592 5592 5591 5591 5590 5589 5588 5587 5587 5586 5585 5585 5584 5584 5584 5584 5584 5584 5584 5584 5585
5583 5583 5584 5584 5585 5586 5587 5588 5590 5591 5592 5593 5594 5595 5597 5598 5599 5600 5601 5602 5604 5605 5605 5606 5606 5607 5608 5609 5609 5610 5611 5611 5612 5612 5613 5613 5614 5614 5615 5615 5615 5615 5614 5614 5613 5612 5611 5609 5607 5605 5602 5599 5597 5596 5595 5595 5594 5594 5593 5592 5591 5590 5589 5589 5588 5588 5587 5586 5585 5584 5584 5583 5582 5581 5580 5579 5578 5577 5577 5576 5576 5576 5576 5576 5577 5577 5578
5586 5586 5586 5586 5587 5588 5588 5589 5590 5591 5592 5593 5594 5594 5595 5596 5597 5597 5598 5599 5601 5602 5603 5603 5604 5605 5605 5606 5606 5607 5607 5608 5608 5609 5609 5610 5610 5610 5611 5611 5611 5611 5610 5610 5609 5608 5607 5606 5604 5602 5600 5597 5594 5592 5591 5590 5590 5590 5589 5588 5587 5586 5585 5584 5584 5583 5582 5581 5579 5579 5578 5576 5575 5574 5573 5572 5571 5570 5570 5569 5568 5568 5568 5569 5569 5570 5571